CW8198 Weather Reports


Display with metric or nautical units.
time (UTC)temp
F
wind
direction
speed
MPH
gust
MPH
rain 1hr
in
rain 24hr
in
rain mn
in
humidity
%
barometer
mb
20260902194537 94 196 8.0 17.0 0.00 0.00 0.00 48 1010.5
20260902194037 94 202 8.0 15.0 0.00 0.00 0.00 49 1010.6
20260902193537 93 225 7.0 15.0 0.00 0.00 0.00 53 1010.6
20260902193036 92 236 8.0 15.0 0.00 0.00 0.00 50 1010.7
20260902192537 92 203 8.0 14.0 0.00 0.00 0.00 49 1010.8
20260902192036 92 209 8.0 14.0 0.00 0.00 0.00 49 1010.7
20260902191535 93 211 6.0 12.0 0.00 0.00 0.00 49 1010.6
20260902191035 93 243 5.0 12.0 0.00 0.00 0.00 54 1010.7
20260902190035 93 200 6.0 15.0 0.00 0.00 0.00 50 1010.8
20260902185534 92 178 6.0 12.0 0.00 0.00 0.00 50 1010.8
20260902185036 92 171 6.0 12.0 0.00 0.00 0.00 53 1010.9
20260902184534 92 155 4.0 12.0 0.00 0.00 0.00 52 1011.0
20260902184034 92 175 5.0 14.0 0.00 0.00 0.00 53 1011.1
20260902183534 92 146 6.0 14.0 0.00 0.00 0.00 54 1011.1
20260902183033 91 131 6.0 13.0 0.00 0.00 0.00 54 1011.2
20260902182532 91 196 6.0 13.0 0.00 0.00 0.00 52 1011.2
20260902181532 91 160 7.0 11.0 0.00 0.00 0.00 51 1011.2
20260902181033 91 194 5.0 12.0 0.00 0.00 0.00 50 1011.3
20260902180532 91 144 5.0 16.0 0.00 0.00 0.00 50 1011.3
20260902180032 92 255 8.0 16.0 0.00 0.00 0.00 48 1011.3
20260902175532 92 186 8.0 14.0 0.00 0.00 0.00 49 1011.4
20260902175033 92 211 7.0 12.0 0.00 0.00 0.00 49 1011.4
20260902174531 92 196 7.0 11.0 0.00 0.00 0.00 51 1011.5
20260902174031 91 189 4.0 9.0 0.00 0.00 0.00 52 1011.5
20260902173532 90 149 4.0 11.0 0.00 0.00 0.00 52 1011.6
20260902173032 90 178 6.0 11.0 0.00 0.00 0.00 52 1011.6
20260902172530 89 193 4.0 9.0 0.00 0.00 0.00 55 1011.6
20260902172030 89 198 2.0 9.0 0.00 0.00 0.00 55 1011.6
20260902171529 88 171 4.0 8.0 0.00 0.00 0.00 55 1011.6
20260902170028 87 207 6.0 10.0 0.00 0.00 0.00 54 1011.7
20260902165528 87 151 3.0 9.0 0.00 0.00 0.00 55 1011.8
20260902165029 87 215 2.0 5.0 0.00 0.00 0.00 59 1011.8
20260902164528 86 196 3.0 6.0 0.00 0.00 0.00 56 1011.8
20260902164028 86 146 2.0 6.0 0.00 0.00 0.00 58 1011.8
20260902163528 86 165 2.0 5.0 0.00 0.00 0.00 57 1011.8
20260902163027 86 191 2.0 6.0 0.00 0.00 0.00 56 1011.7
20260902162527 86 205 3.0 6.0 0.00 0.00 0.00 55 1011.8
20260902162027 86 212 3.0 7.0 0.00 0.00 0.00 56 1011.8
20260902161527 86 144 3.0 9.0 0.00 0.00 0.00 55 1011.8
20260902161026 86 196 4.0 11.0 0.00 0.00 0.00 55 1011.8
20260902160525 86 215 4.0 11.0 0.00 0.00 0.00 54 1011.9
20260902160025 86 187 6.0 10.0 0.00 0.00 0.00 55 1011.8
20260902155525 85 186 4.0 8.0 0.00 0.00 0.00 56 1011.7
20260902155027 85 187 4.0 9.0 0.00 0.00 0.00 56 1011.8
20260902154525 86 178 5.0 9.0 0.00 0.00 0.00 55 1011.8
20260902154025 85 223 5.0 9.0 0.00 0.00 0.00 56 1011.8
20260902153525 85 171 3.0 8.0 0.00 0.00 0.00 58 1011.7
20260902153024 85 189 3.0 10.0 0.00 0.00 0.00 59 1011.9
20260902152525 85 232 4.0 10.0 0.00 0.00 0.00 61 1011.9
20260902152024 85 215 4.0 8.0 0.00 0.00 0.00 60 1011.8
20260902151524 84 188 2.0 5.0 0.00 0.00 0.00 64 1011.7
20260902151024 83 124 2.0 6.0 0.00 0.00 0.00 66 1011.8
20260902150524 83 178 2.0 6.0 0.00 0.00 0.00 65 1011.8
20260902150024 82 93 2.0 7.0 0.00 0.00 0.00 65 1011.7
20260902145523 82 209 1.0 7.0 0.00 0.00 0.00 66 1011.7
20260902145024 82 132 2.0 7.0 0.00 0.00 0.00 66 1011.6
20260902144523 81 198 4.0 7.0 0.00 0.00 0.00 66 1011.7
20260902144022 80 234 2.0 5.0 0.00 0.00 0.00 70 1011.7
20260902143523 80 200 2.0 5.0 0.00 0.00 0.00 70 1011.6
20260902143022 79 193 2.0 4.0 0.00 0.00 0.00 70 1011.8
20260902142522 79 162 1.0 5.0 0.00 0.00 0.00 69 1011.7
20260902141516 79 178 2.0 6.0 0.00 0.00 0.00 68 1011.9
20260902141016 79 163 2.0 6.0 0.00 0.00 0.00 67 1012.0
20260902140516 79 132 2.0 9.0 0.00 0.00 0.00 68 1011.9
20260902140015 79 131 2.0 9.0 0.00 0.00 0.00 69 1011.8
20260902135514 79 9 5.0 8.0 0.00 0.00 0.00 71 1011.8
20260902135014 78 221 2.0 6.0 0.00 0.00 0.00 73 1011.9
20260902134514 78 187 3.0 8.0 0.00 0.00 0.00 74 1011.8
20260902134013 78 153 3.0 8.0 0.00 0.00 0.00 74 1011.8
20260902133513 78 119 4.0 6.0 0.00 0.00 0.00 76 1011.9
20260902133013 77 158 2.0 5.0 0.00 0.00 0.00 79 1012.0
20260902132513 76 162 2.0 7.0 0.00 0.00 0.00 81 1012.0
20260902131512 75 126 2.0 4.0 0.00 0.00 0.00 84 1012.2
20260902131012 74 196 2.0 4.0 0.00 0.00 0.00 85 1012.1
20260902130511 74 146 2.0 3.0 0.00 0.00 0.00 85 1012.3
20260902130010 73 196 1.0 2.0 0.00 0.00 0.00 85 1012.2
20260902125511 73 129 1.0 2.0 0.00 0.00 0.00 85 1012.3
20260902125012 73 93 0.0 2.0 0.00 0.00 0.00 85 1012.3
20260902124510 73 146 1.0 2.0 0.00 0.00 0.00 85 1012.3
20260902124009 73 178 1.0 2.0 0.00 0.00 0.00 85 1012.3
20260902123009 72 205 0.0 2.0 0.00 0.00 0.00 85 1012.3
20260902122509 72 111 0.0 2.0 0.00 0.00 0.00 85 1012.4
20260902122008 72 291 1.0 2.0 0.00 0.00 0.00 85 1012.4
20260902121509 72 31 1.0 2.0 0.00 0.00 0.00 85 1012.3
20260902121008 72 319 1.0 2.0 0.00 0.00 0.00 85 1012.4
20260902120508 72 232 1.0 2.0 0.00 0.00 0.00 85 1012.3
20260902120009 72 291 1.0 3.0 0.00 0.00 0.00 85 1012.3
20260902115508 72 26 1.0 3.0 0.00 0.00 0.00 85 1012.1
20260902115008 72 178 1.0 7.0 0.00 0.00 0.00 85 1012.1
20260902114509 72 61 4.0 7.0 0.00 0.00 0.00 85 1011.9
20260902114007 72 232 2.0 5.0 0.00 0.00 0.00 85 1012.2
20260902113008 73 26 2.0 6.0 0.00 0.00 0.00 86 1012.0
20260902111508 73 128 2.0 5.0 0.00 0.00 0.00 86 1012.0
20260902111007 73 254 2.0 5.0 0.00 0.00 0.00 86 1012.1
20260902110507 73 265 2.0 9.0 0.00 0.00 0.00 86 1012.2
20260902110008 73 16 6.0 9.0 0.00 0.00 0.00 87 1012.2
20260902105007 72 93 4.0 8.0 0.00 0.00 0.00 87 1012.3
20260902104007 72 0 0.0 3.0 0.00 0.00 0.00 86 1012.2
20260902103507 72 291 0.0 2.0 0.00 0.00 0.00 86 1012.2
20260902103009 72 9 0.0 3.0 0.00 0.00 0.00 86 1012.2
20260902102506 72 265 0.0 3.0 0.00 0.00 0.00 86 1012.1
20260902101506 72 205 1.0 3.0 0.00 0.00 0.00 85 1012.2
20260902100506 73 265 1.0 3.0 0.00 0.00 0.00 84 1012.4
20260902100005 73 93 1.0 4.0 0.00 0.00 0.00 84 1012.4
20260902095507 73 210 1.0 4.0 0.00 0.00 0.00 84 1012.4
20260902094506 73 51 0.0 2.0 0.00 0.00 0.00 82 1012.4
20260902094006 73 9 1.0 5.0 0.00 0.00 0.00 82 1012.5
20260902093506 74 178 2.0 5.0 0.00 0.00 0.00 81 1012.4
20260902093005 74 165 2.0 5.0 0.00 0.00 0.00 80 1012.5
20260902091508 74 111 1.0 4.0 0.00 0.00 0.00 77 1012.6
20260902090506 75 325 1.0 2.0 0.00 0.00 0.00 76 1012.6
20260902085505 76 9 0.0 2.0 0.00 0.00 0.00 74 1012.5
20260902085005 76 119 1.0 2.0 0.00 0.00 0.00 74 1012.5
20260902084506 76 41 0.0 2.0 0.00 0.00 0.00 74 1012.4
20260902084006 76 51 1.0 4.0 0.00 0.00 0.00 73 1012.6
20260902083506 76 165 1.0 4.0 0.00 0.00 0.00 73 1012.7
20260902083005 76 34 1.0 7.0 0.00 0.00 0.00 73 1012.7
20260902082005 76 209 2.0 9.0 0.00 0.00 0.00 72 1012.8
20260902081505 77 178 1.0 3.0 0.00 0.00 0.00 71 1012.6
20260902081005 77 230 2.0 5.0 0.00 0.00 0.00 71 1012.6
20260902080505 77 13 2.0 12.0 0.00 0.00 0.00 70 1012.7
20260902080004 77 43 7.0 12.0 0.00 0.00 0.00 70 1012.9
20260902075504 77 34 3.0 8.0 0.00 0.00 0.00 70 1012.8
20260902074504 78 338 6.0 11.0 0.00 0.00 0.00 66 1012.9
20260902074004 79 319 1.0 4.0 0.00 0.00 0.00 64 1012.4
20260902073504 79 232 1.0 5.0 0.00 0.00 0.00 63 1011.9
20260902073005 79 146 2.0 5.0 0.00 0.00 0.00 62 1011.9
20260902072503 79 178 1.0 6.0 0.00 0.00 0.00 62 1011.8
20260902072004 79 200 3.0 7.0 0.00 0.00 0.00 61 1011.7
20260902071504 80 142 4.0 7.0 0.00 0.00 0.00 61 1011.8
20260902071004 80 140 2.0 6.0 0.00 0.00 0.00 60 1011.8
20260902070503 80 212 3.0 8.0 0.00 0.00 0.00 60 1011.8
20260902070004 80 202 3.0 8.0 0.00 0.00 0.00 60 1011.8
20260902065504 80 171 4.0 8.0 0.00 0.00 0.00 60 1011.8
20260902065003 80 219 4.0 8.0 0.00 0.00 0.00 60 1011.8
20260902064503 80 207 4.0 8.0 0.00 0.00 0.00 60 1011.8
20260902064002 81 201 4.0 8.0 0.00 0.00 0.00 59 1011.8
20260902063503 81 232 2.0 8.0 0.00 0.00 0.00 59 1011.8
20260902062502 81 234 2.0 8.0 0.00 0.00 0.00 59 1011.7
20260902060502 81 190 4.0 9.0 0.00 0.00 0.00 59 1011.4
20260902060002 81 137 4.0 9.0 0.00 0.00 0.00 59 1011.2
20260902055504 81 137 4.0 9.0 0.00 0.00 0.00 59 1011.2
20260902055002 81 150 3.0 10.0 0.00 0.00 0.00 60 1011.2
20260902053957 82 102 4.0 7.0 0.00 0.00 0.00 60 1011.2
20260902053457 81 157 4.0 7.0 0.00 0.00 0.00 60 1011.4
20260902051957 81 162 2.0 7.0 0.00 0.00 0.00 62 1011.5
20260902051456 81 163 2.0 6.0 0.00 0.00 0.00 63 1011.6
20260902050456 81 193 2.0 4.0 0.00 0.00 0.00 63 1011.6
20260902045956 81 142 2.0 4.0 0.00 0.00 0.00 64 1011.6
20260902045455 81 123 1.0 4.0 0.00 0.00 0.00 64 1011.6
20260902043955 82 144 2.0 5.0 0.00 0.00 0.00 63 1011.5
20260902043455 82 119 2.0 5.0 0.00 0.00 0.00 64 1011.6
20260902042955 82 126 3.0 5.0 0.00 0.00 0.00 63 1011.7
20260902042455 82 140 2.0 5.0 0.00 0.00 0.00 63 1011.6
20260902041955 83 168 2.0 5.0 0.00 0.00 0.00 63 1011.5
20260902041454 83 178 3.0 5.0 0.00 0.00 0.00 63 1011.5
20260902040454 83 115 3.0 8.0 0.00 0.00 0.00 63 1011.6
20260902035954 83 137 4.0 8.0 0.00 0.00 0.00 63 1011.5
20260902035453 83 153 3.0 6.0 0.00 0.00 0.00 64 1011.6
20260902034955 83 150 2.0 6.0 0.00 0.00 0.00 65 1011.6
20260902034453 83 169 2.0 5.0 0.00 0.00 0.00 65 1011.7
20260902033453 82 165 2.0 5.0 0.00 0.00 0.00 67 1011.6
20260902032953 82 170 2.0 5.0 0.00 0.00 0.00 67 1011.6
20260902032453 83 121 2.0 4.0 0.00 0.00 0.00 68 1011.6
20260902031950 83 153 2.0 4.0 0.00 0.00 0.00 67 1011.6
20260902031450 83 115 2.0 3.0 0.00 0.00 0.00 66 1011.5
20260902030950 83 193 1.0 4.0 0.00 0.00 0.00 65 1011.5
20260902025945 84 149 1.0 4.0 0.00 0.00 0.00 64 1011.4
20260902025444 84 137 3.0 4.0 0.00 0.00 0.00 64 1011.4
20260902024945 84 119 2.0 4.0 0.00 0.00 0.00 64 1011.5
20260902023944 85 153 1.0 3.0 0.00 0.00 0.00 63 1011.3
20260902023443 85 93 1.0 3.0 0.00 0.00 0.00 63 1011.2
20260902022938 85 158 2.0 4.0 0.00 0.00 0.00 63 1011.2
20260902022437 85 113 2.0 4.0 0.00 0.00 0.00 63 1011.1
20260902021938 85 146 2.0 5.0 0.00 0.00 0.00 63 1011.1
20260902021438 85 137 3.0 5.0 0.00 0.00 0.00 63 1011.0
20260902020437 86 119 2.0 4.0 0.00 0.00 0.00 62 1010.9
20260902015937 86 119 2.0 3.0 0.00 0.00 0.00 61 1010.9
20260902015439 86 178 2.0 4.0 0.00 0.00 0.00 61 1010.8
20260902014436 87 168 2.0 4.0 0.00 0.00 0.00 60 1010.5
20260902013936 87 123 2.0 3.0 0.00 0.00 0.00 59 1010.5
20260902013435 87 142 2.0 3.0 0.00 0.00 0.00 58 1010.6
20260902012935 87 123 2.0 3.0 0.00 0.00 0.00 58 1010.5
20260902012436 88 119 2.0 3.0 0.00 0.00 0.00 57 1010.4
20260902011935 88 119 1.0 4.0 0.00 0.00 0.00 56 1010.4
20260902011435 89 126 2.0 4.0 0.00 0.00 0.00 56 1010.3
20260902010935 89 111 2.0 5.0 0.00 0.00 0.00 54 1010.4
20260902010434 90 123 2.0 6.0 0.00 0.00 0.00 53 1010.3
20260902005934 90 126 3.0 6.0 0.00 0.00 0.00 52 1010.3
20260902005435 90 178 3.0 7.0 0.00 0.00 0.00 52 1010.2
20260902004934 91 173 4.0 8.0 0.00 0.00 0.00 52 1010.2
20260902003934 91 183 4.0 8.0 0.00 0.00 0.00 51 1010.2
20260902003433 91 168 4.0 7.0 0.00 0.00 0.00 51 1010.0
20260902002433 92 198 3.0 6.0 0.00 0.00 0.00 50 1009.9
20260902001933 92 162 2.0 6.0 0.00 0.00 0.00 50 1010.2
20260902001433 92 178 3.0 7.0 0.00 0.00 0.00 50 1010.0
20260902000932 93 214 2.0 7.0 0.00 0.00 0.00 50 1010.2
20260902000432 93 200 4.0 7.0 0.00 0.00 0.00 49 1010.2
20260901235932 93 221 4.0 10.0 0.00 0.00 0.00 49 1010.3
20260901235432 94 196 5.0 10.0 0.00 0.00 0.00 49 1010.4
20260901234431 94 200 4.0 12.0 0.00 0.00 0.00 49 1010.4
20260901233431 94 156 5.0 10.0 0.00 0.00 0.00 49 1010.5
20260901232930 94 163 6.0 10.0 0.00 0.00 0.00 49 1010.4
20260901232430 94 195 5.0 9.0 0.00 0.00 0.00 50 1010.6
20260901231931 94 208 3.0 10.0 0.00 0.00 0.00 51 1010.5
20260901225930 94 232 7.0 14.0 0.00 0.00 0.00 50 1010.7
20260901224927 95 234 7.0 12.0 0.00 0.00 0.00 50 1010.8
20260901224428 95 187 4.0 11.0 0.00 0.00 0.00 51 1010.7
20260901223927 95 203 4.0 11.0 0.00 0.00 0.00 50 1010.8
20260901223428 95 196 6.0 14.0 0.00 0.00 0.00 49 1010.8
20260901222427 95 257 6.0 16.0 0.00 0.00 0.00 50 1010.8
20260901221427 95 196 7.0 14.0 0.00 0.00 0.00 49 1010.9
20260901220926 95 215 6.0 11.0 0.00 0.00 0.00 51 1011.0
20260901220424 94 193 5.0 15.0 0.00 0.00 0.00 51 1011.0
20260901215924 94 203 7.0 16.0 0.00 0.00 0.00 49 1011.0
20260901215425 94 170 6.0 15.0 0.00 0.00 0.00 51 1011.0
20260901214924 94 203 7.0 15.0 0.00 0.00 0.00 51 1010.9
20260901214423 94 188 8.0 14.0 0.00 0.00 0.00 51 1011.1
20260901213924 94 227 6.0 13.0 0.00 0.00 0.00 51 1011.1
20260901213424 94 171 6.0 11.0 0.00 0.00 0.00 51 1011.0
20260901212423 94 203 5.0 14.0 0.00 0.00 0.00 51 1011.2
20260901211923 94 210 8.0 14.0 0.00 0.00 0.00 51 1011.3
20260901211424 94 262 7.0 13.0 0.00 0.00 0.00 52 1011.3
20260901210423 94 194 4.0 11.0 0.00 0.00 0.00 53 1011.2
20260901205923 94 189 5.0 11.0 0.00 0.00 0.00 54 1011.3
20260901205425 94 201 6.0 17.0 0.00 0.00 0.00 52 1011.4
20260901204923 94 200 10.0 17.0 0.00 0.00 0.00 51 1011.5
20260901204423 94 196 7.0 12.0 0.00 0.00 0.00 51 1011.4
20260901203422 93 211 5.0 13.0 0.00 0.00 0.00 52 1011.5
20260901202922 93 162 6.0 14.0 0.00 0.00 0.00 52 1011.6
20260901202422 93 214 6.0 14.0 0.00 0.00 0.00 52 1011.6
20260901201922 94 200 5.0 12.0 0.00 0.00 0.00 53 1011.7
20260901200921 93 210 3.0 12.0 0.00 0.00 0.00 55 1011.7
20260901200422 93 198 5.0 14.0 0.00 0.00 0.00 53 1011.7
20260901195921 93 187 5.0 14.0 0.00 0.00 0.00 51 1011.8
20260901195422 93 226 7.0 12.0 0.00 0.00 0.00 51 1011.9
20260901194921 93 162 5.0 12.0 0.00 0.00 0.00 53 1011.9